N603Q KMVY-KMVY

Flight info

Callsign N603Q
Flight time 0h 4m
Altitude VFR
Route
Aircraft BE58/L-VGD/C

Departure

Time 2026-04-26 20:07
Airport Martha's Vineyard Airport (KMVY)

Arrival

Time 2026-04-26 20:12
Airport Martha's Vineyard Airport (KMVY)
Time Latitude Longitude Altitude Speed Heading
2026-04-26 20:05 41.38859 -70.61453 50 ft 16 kts 266°
2026-04-26 20:05 41.38872 -70.61495 51 ft 8 kts 289°
2026-04-26 20:05 41.38759 -70.61640 49 ft 37 kts 220°
2026-04-26 20:05 41.38617 -70.61808 49 ft 12 kts 241°
2026-04-26 20:06 41.38624 -70.61857 49 ft 0 kts 310°
2026-04-26 20:06 41.38625 -70.61859 49 ft 6 kts 310°
2026-04-26 20:06 41.38764 -70.61804 51 ft 52 kts 40°
2026-04-26 20:07 41.39208 -70.61337 182 ft 98 kts 41°
2026-04-26 20:07 41.39753 -70.60712 500 ft 101 kts 37°
2026-04-26 20:07 41.40419 -70.60860 616 ft 135 kts 303°
2026-04-26 20:07 41.40175 -70.61947 729 ft 138 kts 193°
2026-04-26 20:08 41.39276 -70.62389 454 ft 129 kts 198°
2026-04-26 20:08 41.38552 -70.62840 251 ft 102 kts 209°
2026-04-26 20:08 41.38016 -70.62907 538 ft 86 kts 114°
2026-04-26 20:08 41.38316 -70.62286 293 ft 105 kts 35°
2026-04-26 20:09 41.38823 -70.61757 66 ft 79 kts 43°
2026-04-26 20:09 41.39183 -70.61328 81 ft 78 kts 43°
2026-04-26 20:09 41.39576 -70.60858 491 ft 81 kts 31°
2026-04-26 20:09 41.40111 -70.61225 774 ft 112 kts 305°
2026-04-26 20:10 41.40271 -70.62177 911 ft 115 kts 242°
2026-04-26 20:10 41.39602 -70.62960 1028 ft 146 kts 214°
2026-04-26 20:10 41.38792 -70.63739 939 ft 124 kts 215°
2026-04-26 20:10 41.38106 -70.63765 839 ft 100 kts 125°
2026-04-26 20:11 41.37887 -70.62897 602 ft 98 kts 64°
2026-04-26 20:11 41.38352 -70.62294 203 ft 90 kts 45°
2026-04-26 20:11 41.38797 -70.61774 52 ft 71 kts 39°
2026-04-26 20:12 41.39008 -70.61402 53 ft 0 kts 133°
2026-04-26 20:12 41.39007 -70.61400 53 ft 0 kts 124°
2026-04-26 20:12 41.39005 -70.61397 53 ft 0 kts 117°
2026-04-26 20:12 41.39004 -70.61391 53 ft 2 kts 102°